カタログに戻る

STARLINK-31174

運用中通信VLEO
NORAD 58808·PAYLOAD·🇺🇸 United States

打ち上げ Jan 15, 2024 から Cape Canaveral Space Force Station

Loading…

次のパス (今後24時間)

TLE

最新Source: CelesTrak SupGP

元期: Sep 15, 2026, 03:13 UTC

1 58808C 24012X   26258.13451389 -.00002145  00000+0 -77713-4 0  2585
2 58808  42.9996 174.9609 0001232 274.1568  88.9694 15.27574299    13

AllMySatでSTARLINK-31174をリアルタイム追跡

Download on the App Store